QPF
0.01 0.02 0.02 0.02 0.02 0.02 0.03 0.04 0.06 0.07 0.07 0.06 0.08 0.14 0.18 0.20 0.21 0.23 0.22 0.24 0.25 0.27 0.28 0.24 0.21 0.26 0.30 0.32 0.32 0.31 0.31 0.25 0.22 0.19 0.16 0.16 0.16 0.15 0.13 0.11 0.09 0.08 0.08
0.02 0.02 0.02 0.03 0.03 0.03 0.04 0.05 0.06 0.06 0.06 0.08 0.10 0.12 0.15 0.19 0.21 0.21 0.20 0.17 0.19 0.23 0.27 0.28 0.28 0.33 0.35 0.38 0.38 0.33 0.33 0.28 0.23 0.21 0.18 0.15 0.15 0.12 0.09 0.08 0.07 0.06 0.05
0.03 0.03 0.03 0.05 0.05 0.04 0.06 0.08 0.07 0.07 0.08 0.09 0.10 0.11 0.11 0.13 0.14 0.13 0.13 0.14 0.14 0.14 0.16 0.22 0.30 0.36 0.36 0.37 0.40 0.37 0.33 0.29 0.24 0.21 0.19 0.15 0.13 0.11 0.10 0.08 0.07 0.06 0.05
0.04 0.03 0.03 0.04 0.07 0.07 0.08 0.10 0.08 0.08 0.09 0.09 0.11 0.11 0.10 0.10 0.11 0.10 0.11 0.13 0.14 0.13 0.14 0.17 0.21 0.26 0.30 0.31 0.35 0.38 0.36 0.33 0.30 0.27 0.21 0.15 0.09 0.09 0.10 0.10 0.08 0.06 0.06
0.04 0.04 0.04 0.05 0.05 0.05 0.05 0.05 0.05 0.06 0.07 0.08 0.10 0.12 0.12 0.13 0.15 0.16 0.13 0.09 0.09 0.10 0.12 0.13 0.12 0.13 0.18 0.23 0.27 0.30 0.36 0.36 0.32 0.29 0.26 0.20 0.14 0.10 0.08 0.09 0.08 0.07 0.07
0.06 0.04 0.02 0.02 0.03 0.03 0.03 0.03 0.04 0.05 0.06 0.07 0.07 0.08 0.11 0.14 0.13 0.12 0.10 0.08 0.08 0.08 0.08 0.08 0.07 0.08 0.10 0.13 0.17 0.19 0.22 0.27 0.27 0.26 0.24 0.21 0.19 0.15 0.12 0.10 0.10 0.09 0.08
0.08 0.05 0.03 0.01 0.01 0.02 0.02 0.03 0.03 0.04 0.04 0.04 0.04 0.05 0.07 0.09 0.08 0.09 0.10 0.09 0.07 0.05 0.06 0.08 0.08 0.09 0.11 0.14 0.14 0.15 0.17 0.20 0.22 0.23 0.23 0.21 0.18 0.17 0.16 0.14 0.12 0.09 0.08
0.12 0.11 0.04 0.02 0.01 0.02 0.03 0.05 0.05 0.04 0.03 0.04 0.03 0.03 0.05 0.06 0.07 0.09 0.08 0.07 0.07 0.05 0.06 0.07 0.06 0.07 0.11 0.13 0.14 0.13 0.14 0.15 0.15 0.15 0.17 0.18 0.15 0.12 0.11 0.11 0.11 0.10 0.09
0.06 0.09 0.04 0.03 0.02 0.02 0.02 0.03 0.05 0.05 0.04 0.04 0.03 0.04 0.04 0.03 0.04 0.05 0.05 0.04 0.04 0.04 0.04 0.05 0.04 0.04 0.08 0.10 0.10 0.08 0.08 0.10 0.11 0.10 0.09 0.08 0.08 0.08 0.08 0.08 0.08 0.08 0.08
0.02 0.01 0.01 0.02 0.02 0.01 0.01 0.01 0.02 0.03 0.03 0.03 0.03 0.03 0.03 0.03 0.03 0.03 0.02 0.02 0.02 0.03 0.02 0.02 0.02 0.02 0.03 0.04 0.06 0.06 0.04 0.04 0.04 0.04 0.04 0.04 0.04 0.04 0.04 0.06 0.06 0.05 0.04
0.02 0.01 0.01 0.01 0.01 0.01 0.01 0.02 0.02 0.02 0.03 0.03 0.03 0.03 0.03 0.02 0.02 0.03 0.02 0.02 0.01 0.01 0.02 0.01 0.01 0.01 0.01 0.01 0.02 0.03 0.02 0.02 0.01 0.01 0.01 0.01 0.02 0.02 0.02 0.03 0.04 0.04 0.03
0.01 0.01 0.01 0.01 0.01 0.01 0.01 0.02 0.02 0.02 0.03 0.03 0.03 0.03 0.03 0.02 0.02 0.02 0.02 0.01 0.01 0.01 0.01 0.01 0.01 0.01 0.01 0.01 0.01 0.01 0.01 0.00 0.00 0.00 0.00 0.00 0.00 0.01 0.01 0.01 0.01 0.01 0.01
0.01 0.00 0.01 0.01 0.01 0.01 0.01 0.01 0.02 0.02 0.03 0.04 0.04 0.04 0.03 0.02 0.02 0.01 0.01 0.01 0.01 0.01 0.01 0.02 0.02 0.02 0.01 0.01 0.00 0.00 0.00 0.00 0.00 0.00 0.00 0.00 0.00 0.00 0.00 0.00 0.00 0.00 0.00
0.01 0.01 0.01 0.01 0.01 0.01 0.01 0.01 0.01 0.01 0.02 0.04 0.05 0.05 0.04 0.03 0.02 0.02 0.01 0.01 0.02 0.02 0.02 0.01 0.02 0.01 0.01 0.00 0.00 0.00 0.00 0.00 0.00 0.00 0.00 0.00 0.00 0.00 0.00 0.00 0.00 0.00 0.00
0.01 0.01 0.01 0.01 0.01 0.01 0.01 0.01 0.01 0.01 0.02 0.04 0.06 0.05 0.05 0.04 0.02 0.02 0.02 0.02 0.02 0.02 0.01 0.01 0.01 0.01 0.00 0.00 0.00 0.00 0.00 0.00 0.00 0.00 0.00 0.00 0.00 0.00 0.00 0.00 0.00 0.00 0.00
0.01 0.01 0.01 0.01 0.01 0.01 0.01 0.01 0.01 0.01 0.02 0.05 0.07 0.06 0.05 0.03 0.03 0.02 0.02 0.01 0.01 0.01 0.01 0.01 0.00 0.00 0.00 0.00 0.00 0.00 0.00 0.00 0.00 0.00 0.00 0.00 0.00 0.00 0.00 0.00 0.00 0.00 0.00
0.02 0.02 0.02 0.02 0.01 0.01 0.01 0.01 0.02 0.02 0.03 0.06 0.06 0.05 0.05 0.03 0.02 0.02 0.01 0.01 0.01 0.00 0.00 0.00 0.00 0.00 0.00 0.00 0.00 0.00 0.00 0.00 0.00 0.00 0.00 0.00 0.00 0.00 0.00 0.00 0.00 0.00 0.00
0.02 0.02 0.02 0.02 0.02 0.02 0.02 0.02 0.02 0.04 0.05 0.06 0.04 0.03 0.03 0.03 0.01 0.01 0.02 0.01 0.01 0.01 0.00 0.00 0.00 0.00 0.00 0.00 0.00 0.00 0.00 0.00 0.00 0.00 0.00 0.00 0.00 0.00 0.00 0.00 0.00 0.00 0.00
0.01 0.02 0.02 0.02 0.02 0.02 0.02 0.03 0.04 0.05 0.05 0.04 0.02 0.02 0.02 0.02 0.02 0.02 0.02 0.01 0.00 0.00 0.00 0.00 0.00 0.00 0.00 0.00 0.00 0.00 0.00 0.00 0.00 0.00 0.00 0.00 0.00 0.00 0.00 0.00 0.00 0.00 0.00
0.02 0.03 0.03 0.02 0.01 0.02 0.02 0.02 0.03 0.02 0.02 0.02 0.01 0.01 0.02 0.02 0.01 0.01 0.00 0.00 0.00 0.00 0.00 0.00 0.00 0.00 0.00 0.00 0.00 0.00 0.00 0.00 0.00 0.00 0.00 0.00 0.00 0.00 0.00 0.00 0.00 0.00 0.00
0.03 0.03 0.03 0.02 0.01 0.01 0.01 0.02 0.02 0.01 0.01 0.01 0.01 0.01 0.01 0.01 0.01 0.01 0.01 0.00 0.00 0.00 0.00 0.00 0.00 0.00 0.00 0.00 0.00 0.00 0.00 0.00 0.00 0.00 0.00 0.00 0.00 0.00 0.00 0.00 0.00 0.00 0.00
0.03 0.03 0.02 0.02 0.01 0.01 0.01 0.01 0.01 0.02 0.01 0.01 0.02 0.02 0.02 0.01 0.01 0.00 0.01 0.00 0.00 0.00 0.00 0.00 0.00 0.00 0.00 0.00 0.00 0.00 0.00 0.00 0.00 0.00 0.00 0.00 0.00 0.00 0.00 0.00 0.00 0.00 0.00
0.02 0.02 0.02 0.01 0.01 0.01 0.01 0.01 0.01 0.02 0.02 0.02 0.02 0.02 0.02 0.01 0.00 0.00 0.00 0.00 0.00 0.00 0.00 0.00 0.00 0.00 0.00 0.00 0.00 0.00 0.00 0.00 0.00 0.00 0.00 0.00 0.00 0.00 0.00 0.00 0.00 0.00 0.00
0.02 0.02 0.01 0.01 0.01 0.01 0.02 0.02 0.02 0.01 0.02 0.02 0.01 0.01 0.01 0.00 0.00 0.00 0.00 0.00 0.00 0.00 0.00 0.00 0.00 0.00 0.00 0.00 0.00 0.00 0.00 0.00 0.00 0.00 0.00 0.00 0.00 0.00 0.00 0.00 0.00 0.00 0.00
0.02 0.01 0.01 0.01 0.01 0.02 0.02 0.02 0.02 0.02 0.01 0.01 0.01 0.01 0.00 0.00 0.00 0.00 0.00 0.00 0.00 0.00 0.00 0.00 0.00 0.00 0.00 0.00 0.00 0.00 0.00 0.00 0.00 0.00 0.00 0.00 0.00 0.00 0.00 0.00 0.00 0.00 0.00
0.01 0.01 0.01 0.01 0.01 0.01 0.02 0.01 0.01 0.01 0.01 0.01 0.01 0.00 0.00 0.00 0.00 0.00 0.00 0.00 0.00 0.00 0.00 0.00 0.00 0.00 0.00 0.00 0.00 0.00 0.00 0.00 0.00 0.00 0.00 0.00 0.00 0.00 0.00 0.00 0.00 0.00 0.00
MSLP
1016.32 1016.15 1015.99 1015.83 1015.66 1015.51 1015.37 1015.28 1015.24 1015.25 1015.30 1015.37 1015.43 1015.43 1015.35 1015.17 1014.89 1014.52 1014.12 1013.72 1013.39 1013.17 1013.10 1013.21 1013.48 1013.91 1014.46 1015.09 1015.78 1016.48 1017.17 1017.83 1018.45 1019.01 1019.52 1019.97 1020.35 1020.65 1020.88 1021.05 1021.17 1021.26 1021.35
1017.11 1017.04 1016.92 1016.76 1016.55 1016.32 1016.08 1015.88 1015.74 1015.67 1015.66 1015.69 1015.71 1015.69 1015.59 1015.38 1015.06 1014.66 1014.22 1013.79 1013.43 1013.19 1013.09 1013.18 1013.42 1013.80 1014.29 1014.85 1015.45 1016.07 1016.69 1017.31 1017.92 1018.52 1019.11 1019.67 1020.19 1020.65 1021.04 1021.36 1021.61 1021.80 1021.95
1017.78 1017.83 1017.78 1017.64 1017.41 1017.11 1016.78 1016.47 1016.23 1016.06 1015.98 1015.95 1015.94 1015.91 1015.80 1015.59 1015.28 1014.89 1014.45 1014.04 1013.69 1013.45 1013.36 1013.42 1013.62 1013.93 1014.32 1014.76 1015.23 1015.71 1016.22 1016.74 1017.29 1017.89 1018.51 1019.16 1019.81 1020.43 1020.99 1021.48 1021.89 1022.22 1022.47
1018.30 1018.48 1018.53 1018.44 1018.21 1017.86 1017.46 1017.06 1016.71 1016.45 1016.29 1016.21 1016.16 1016.11 1016.01 1015.83 1015.55 1015.20 1014.82 1014.45 1014.14 1013.93 1013.84 1013.89 1014.04 1014.27 1014.55 1014.85 1015.16 1015.48 1015.83 1016.22 1016.68 1017.22 1017.84 1018.53 1019.27 1020.02 1020.74 1021.40 1021.98 1022.47 1022.87
1018.68 1019.01 1019.17 1019.15 1018.94 1018.58 1018.13 1017.65 1017.22 1016.88 1016.64 1016.50 1016.42 1016.36 1016.27 1016.11 1015.89 1015.60 1015.28 1014.97 1014.72 1014.55 1014.48 1014.51 1014.62 1014.77 1014.94 1015.10 1015.26 1015.42 1015.60 1015.84 1016.18 1016.63 1017.20 1017.89 1018.67 1019.50 1020.34 1021.15 1021.89 1022.54 1023.08
1018.96 1019.42 1019.71 1019.77 1019.62 1019.27 1018.80 1018.28 1017.79 1017.38 1017.08 1016.89 1016.77 1016.69 1016.61 1016.48 1016.30 1016.07 1015.82 1015.57 1015.37 1015.24 1015.19 1015.21 1015.27 1015.36 1015.43 1015.49 1015.51 1015.53 1015.57 1015.67 1015.87 1016.21 1016.70 1017.34 1018.10 1018.96 1019.87 1020.78 1021.65 1022.44 1023.13
1019.15 1019.75 1020.15 1020.32 1020.23 1019.93 1019.47 1018.95 1018.43 1017.97 1017.63 1017.39 1017.24 1017.15 1017.06 1016.95 1016.80 1016.62 1016.41 1016.21 1016.04 1015.94 1015.89 1015.89 1015.93 1015.96 1015.97 1015.95 1015.88 1015.80 1015.73 1015.71 1015.80 1016.02 1016.41 1016.96 1017.67 1018.50 1019.42 1020.38 1021.32 1022.21 1023.02
1019.31 1020.02 1020.53 1020.79 1020.79 1020.55 1020.14 1019.64 1019.12 1018.66 1018.28 1018.02 1017.84 1017.73 1017.63 1017.53 1017.39 1017.22 1017.03 1016.85 1016.70 1016.59 1016.53 1016.51 1016.52 1016.52 1016.50 1016.44 1016.33 1016.20 1016.07 1015.98 1015.98 1016.11 1016.38 1016.83 1017.44 1018.19 1019.06 1020.01 1020.98 1021.93 1022.82
1019.46 1020.25 1020.85 1021.20 1021.29 1021.13 1020.78 1020.32 1019.84 1019.39 1019.02 1018.74 1018.55 1018.42 1018.31 1018.20 1018.06 1017.88 1017.69 1017.49 1017.32 1017.18 1017.09 1017.04 1017.03 1017.01 1016.98 1016.92 1016.82 1016.69 1016.56 1016.45 1016.40 1016.45 1016.63 1016.96 1017.45 1018.10 1018.88 1019.77 1020.71 1021.67 1022.60
1019.61 1020.47 1021.14 1021.56 1021.72 1021.63 1021.36 1020.96 1020.53 1020.12 1019.77 1019.51 1019.32 1019.18 1019.06 1018.94 1018.78 1018.59 1018.36 1018.14 1017.92 1017.74 1017.60 1017.52 1017.47 1017.44 1017.42 1017.39 1017.33 1017.25 1017.15 1017.07 1017.01 1017.03 1017.13 1017.37 1017.74 1018.26 1018.93 1019.72 1020.59 1021.52 1022.44
1019.79 1020.68 1021.39 1021.86 1022.07 1022.04 1021.84 1021.51 1021.14 1020.78 1020.47 1020.24 1020.07 1019.94 1019.83 1019.69 1019.52 1019.31 1019.06 1018.79 1018.53 1018.30 1018.11 1017.98 1017.90 1017.86 1017.86 1017.87 1017.87 1017.86 1017.84 1017.81 1017.78 1017.79 1017.86 1018.02 1018.29 1018.69 1019.23 1019.90 1020.68 1021.53 1022.42
1020.01 1020.91 1021.62 1022.10 1022.34 1022.35 1022.19 1021.93 1021.62 1021.32 1021.07 1020.88 1020.74 1020.64 1020.54 1020.41 1020.25 1020.03 1019.77 1019.47 1019.17 1018.90 1018.66 1018.48 1018.38 1018.33 1018.35 1018.39 1018.46 1018.53 1018.59 1018.63 1018.66 1018.69 1018.75 1018.85 1019.04 1019.33 1019.75 1020.30 1020.97 1021.74 1022.55
1020.27 1021.15 1021.83 1022.29 1022.52 1022.55 1022.42 1022.20 1021.95 1021.71 1021.51 1021.37 1021.28 1021.21 1021.15 1021.06 1020.91 1020.72 1020.46 1020.17 1019.86 1019.56 1019.29 1019.09 1018.96 1018.91 1018.93 1019.01 1019.12 1019.26 1019.39 1019.50 1019.59 1019.66 1019.72 1019.80 1019.93 1020.13 1020.45 1020.89 1021.45 1022.11 1022.84
1020.55 1021.39 1022.02 1022.43 1022.63 1022.64 1022.53 1022.34 1022.13 1021.94 1021.79 1021.71 1021.66 1021.65 1021.63 1021.58 1021.49 1021.34 1021.13 1020.87 1020.58 1020.29 1020.03 1019.81 1019.67 1019.61 1019.63 1019.72 1019.87 1020.05 1020.23 1020.40 1020.53 1020.64 1020.71 1020.78 1020.88 1021.02 1021.26 1021.60 1022.06 1022.62 1023.25
1020.84 1021.62 1022.17 1022.52 1022.66 1022.65 1022.54 1022.37 1022.19 1022.04 1021.95 1021.90 1021.91 1021.94 1021.97 1021.99 1021.96 1021.88 1021.74 1021.55 1021.32 1021.07 1020.84 1020.64 1020.50 1020.43 1020.45 1020.53 1020.68 1020.87 1021.08 1021.28 1021.45 1021.58 1021.67 1021.74 1021.82 1021.93 1022.10 1022.36 1022.73 1023.19 1023.73
1021.11 1021.80 1022.28 1022.55 1022.65 1022.61 1022.49 1022.34 1022.19 1022.08 1022.01 1022.01 1022.05 1022.12 1022.20 1022.28 1022.32 1022.33 1022.27 1022.18 1022.03 1021.86 1021.69 1021.53 1021.40 1021.34 1021.34 1021.41 1021.54 1021.71 1021.91 1022.12 1022.30 1022.44 1022.55 1022.63 1022.69 1022.78 1022.91 1023.11 1023.40 1023.77 1024.21
1021.32 1021.93 1022.33 1022.54 1022.60 1022.55 1022.44 1022.31 1022.19 1022.11 1022.07 1022.09 1022.15 1022.25 1022.37 1022.50 1022.61 1022.69 1022.73 1022.73 1022.69 1022.62 1022.52 1022.41 1022.32 1022.26 1022.25 1022.30 1022.40 1022.54 1022.71 1022.89 1023.07 1023.21 1023.32 1023.40 1023.47 1023.54 1023.65 1023.80 1024.02 1024.30 1024.65
1021.43 1021.97 1022.31 1022.49 1022.54 1022.51 1022.42 1022.33 1022.24 1022.19 1022.18 1022.21 1022.29 1022.40 1022.54 1022.69 1022.85 1022.99 1023.12 1023.22 1023.27 1023.29 1023.28 1023.24 1023.19 1023.15 1023.13 1023.15 1023.21 1023.31 1023.44 1023.59 1023.74 1023.88 1023.99 1024.07 1024.15 1024.21 1024.29 1024.40 1024.56 1024.78 1025.04
1021.44 1021.92 1022.24 1022.41 1022.49 1022.49 1022.47 1022.43 1022.39 1022.38 1022.39 1022.43 1022.50 1022.60 1022.74 1022.90 1023.08 1023.27 1023.46 1023.63 1023.77 1023.87 1023.94 1023.96 1023.95 1023.93 1023.92 1023.92 1023.95 1024.01 1024.10 1024.21 1024.33 1024.45 1024.56 1024.65 1024.72 1024.79 1024.85 1024.93 1025.04 1025.19 1025.37
1021.35 1021.80 1022.12 1022.33 1022.46 1022.53 1022.58 1022.61 1022.64 1022.67 1022.70 1022.75 1022.81 1022.90 1023.01 1023.16 1023.34 1023.55 1023.77 1023.99 1024.19 1024.36 1024.49 1024.56 1024.60 1024.60 1024.59 1024.58 1024.58 1024.61 1024.67 1024.75 1024.85 1024.96 1025.06 1025.15 1025.23 1025.29 1025.34 1025.40 1025.47 1025.55 1025.65
1021.19 1021.64 1021.99 1022.25 1022.46 1022.62 1022.76 1022.87 1022.97 1023.04 1023.10 1023.15 1023.20 1023.27 1023.36 1023.49 1023.66 1023.86 1024.09 1024.33 1024.57 1024.78 1024.94 1025.06 1025.12 1025.15 1025.14 1025.13 1025.12 1025.13 1025.16 1025.22 1025.31 1025.40 1025.50 1025.59 1025.67 1025.73 1025.78 1025.82 1025.85 1025.88 1025.92
1021.01 1021.48 1021.88 1022.21 1022.50 1022.76 1022.98 1023.17 1023.33 1023.45 1023.54 1023.60 1023.64 1023.70 1023.77 1023.87 1024.02 1024.21 1024.43 1024.68 1024.92 1025.15 1025.33 1025.47 1025.55 1025.59 1025.59 1025.58 1025.56 1025.56 1025.58 1025.63 1025.70 1025.79 1025.89 1025.98 1026.06 1026.12 1026.17 1026.19 1026.19 1026.19 1026.17
1020.88 1021.38 1021.82 1022.22 1022.58 1022.91 1023.21 1023.47 1023.67 1023.83 1023.95 1024.02 1024.08 1024.13 1024.19 1024.29 1024.42 1024.60 1024.81 1025.04 1025.28 1025.49 1025.68 1025.82 1025.90 1025.95 1025.95 1025.94 1025.92 1025.91 1025.93 1025.97 1026.03 1026.12 1026.21 1026.31 1026.39 1026.45 1026.49 1026.50 1026.49 1026.47 1026.42
1020.83 1021.35 1021.84 1022.28 1022.69 1023.07 1023.41 1023.71 1023.95 1024.14 1024.28 1024.38 1024.45 1024.52 1024.59 1024.69 1024.83 1025.00 1025.20 1025.42 1025.64 1025.84 1026.01 1026.13 1026.21 1026.24 1026.25 1026.23 1026.21 1026.20 1026.21 1026.24 1026.30 1026.38 1026.47 1026.56 1026.64 1026.70 1026.74 1026.75 1026.74 1026.70 1026.64
1020.88 1021.43 1021.93 1022.39 1022.82 1023.22 1023.57 1023.88 1024.13 1024.34 1024.50 1024.63 1024.73 1024.83 1024.94 1025.06 1025.22 1025.40 1025.60 1025.80 1026.00 1026.18 1026.32 1026.42 1026.48 1026.50 1026.49 1026.47 1026.44 1026.43 1026.43 1026.46 1026.51 1026.58 1026.66 1026.74 1026.82 1026.88 1026.92 1026.94 1026.93 1026.90 1026.84
1021.04 1021.58 1022.07 1022.53 1022.95 1023.33 1023.67 1023.96 1024.21 1024.42 1024.60 1024.76 1024.90 1025.05 1025.20 1025.37 1025.56 1025.76 1025.97 1026.17 1026.35 1026.50 1026.62 1026.69 1026.72 1026.71 1026.69 1026.65 1026.62 1026.60 1026.60 1026.62 1026.66 1026.72 1026.78 1026.85 1026.92 1026.98 1027.03 1027.06 1027.06 1027.05 1027.01
Thickness
5676 5677 5679 5680 5681 5683 5683 5684 5685 5686 5687 5687 5685 5683 5682 5681 5681 5682 5683 5685 5685 5686 5686 5688 5689 5689 5689 5689 5687 5685 5682 5679 5678 5674 5669 5667 5668 5668 5668 5669 5669 5669 5668
5667 5668 5669 5670 5671 5671 5673 5674 5675 5676 5678 5679 5678 5677 5676 5674 5674 5675 5675 5677 5678 5679 5680 5681 5682 5684 5685 5684 5683 5682 5678 5675 5674 5671 5665 5660 5658 5658 5658 5659 5659 5658 5657
5656 5656 5658 5658 5659 5660 5661 5664 5665 5666 5668 5670 5670 5670 5669 5668 5667 5667 5667 5669 5670 5672 5672 5674 5676 5677 5678 5678 5678 5677 5675 5671 5669 5668 5665 5660 5656 5650 5647 5648 5648 5648 5647
5648 5646 5646 5647 5648 5649 5651 5653 5655 5657 5658 5660 5661 5662 5660 5658 5657 5657 5657 5659 5660 5663 5665 5666 5667 5669 5670 5671 5671 5670 5670 5669 5665 5662 5661 5661 5659 5651 5641 5638 5637 5637 5635
5640 5638 5637 5637 5638 5639 5641 5644 5645 5647 5649 5650 5651 5651 5650 5649 5648 5648 5648 5650 5651 5653 5655 5657 5658 5660 5661 5663 5664 5664 5663 5662 5660 5657 5655 5653 5650 5649 5644 5634 5628 5625 5623
5631 5629 5628 5628 5628 5629 5631 5633 5635 5636 5638 5639 5640 5639 5639 5638 5638 5638 5638 5639 5640 5642 5644 5647 5648 5649 5651 5652 5654 5655 5654 5653 5652 5651 5649 5648 5646 5643 5640 5633 5625 5618 5613
5623 5620 5619 5618 5617 5618 5619 5621 5623 5624 5626 5628 5628 5627 5627 5627 5627 5627 5627 5628 5629 5631 5632 5635 5637 5638 5640 5641 5642 5643 5642 5642 5642 5641 5640 5640 5639 5638 5636 5629 5619 5611 5604
5614 5611 5609 5608 5607 5607 5608 5609 5610 5612 5613 5614 5615 5615 5616 5615 5615 5615 5615 5616 5617 5619 5621 5624 5625 5627 5629 5630 5631 5631 5630 5630 5631 5630 5630 5629 5628 5629 5628 5623 5615 5604 5596
5608 5603 5601 5599 5597 5597 5597 5598 5599 5601 5601 5602 5602 5602 5603 5603 5603 5603 5604 5604 5606 5608 5610 5612 5614 5615 5617 5618 5619 5618 5617 5619 5618 5619 5619 5618 5617 5617 5616 5614 5610 5604 5594
5600 5595 5592 5590 5589 5588 5587 5587 5588 5589 5589 5589 5590 5590 5590 5590 5591 5591 5592 5593 5594 5596 5597 5599 5601 5602 5603 5605 5606 5605 5605 5606 5606 5606 5606 5605 5604 5604 5603 5601 5597 5596 5591
5593 5588 5585 5582 5580 5578 5578 5577 5577 5577 5577 5577 5577 5577 5578 5578 5579 5579 5580 5581 5582 5583 5584 5586 5587 5588 5589 5590 5591 5592 5592 5592 5592 5592 5593 5592 5591 5591 5589 5588 5586 5584 5581
5586 5581 5577 5574 5571 5569 5568 5567 5566 5566 5565 5566 5566 5566 5566 5567 5567 5567 5568 5569 5570 5571 5572 5573 5574 5575 5575 5577 5578 5579 5578 5579 5578 5578 5579 5579 5579 5577 5576 5576 5573 5571 5568
5580 5574 5570 5566 5563 5560 5559 5557 5556 5555 5555 5556 5555 5555 5555 5555 5555 5555 5555 5556 5557 5558 5559 5560 5561 5561 5562 5564 5564 5565 5565 5565 5565 5565 5566 5565 5566 5564 5563 5562 5560 5558 5556
5574 5568 5562 5557 5554 5551 5549 5548 5546 5545 5545 5545 5544 5543 5543 5543 5543 5543 5544 5544 5546 5546 5547 5548 5548 5549 5550 5551 5552 5552 5552 5552 5552 5552 5552 5552 5552 5551 5551 5550 5547 5545 5542
5569 5562 5555 5549 5546 5543 5540 5539 5537 5536 5535 5534 5534 5533 5532 5532 5533 5533 5533 5534 5534 5534 5535 5536 5537 5538 5539 5540 5540 5540 5540 5540 5540 5540 5540 5540 5540 5540 5540 5538 5535 5533 5530
5564 5555 5549 5543 5539 5536 5533 5530 5528 5527 5527 5526 5525 5524 5524 5523 5524 5523 5523 5523 5523 5523 5524 5525 5526 5527 5527 5529 5529 5530 5529 5529 5529 5528 5528 5529 5528 5528 5527 5526 5525 5523 5520
5558 5550 5542 5537 5532 5529 5526 5523 5521 5520 5519 5518 5517 5516 5516 5516 5515 5515 5514 5514 5513 5514 5514 5515 5516 5516 5516 5518 5518 5519 5518 5517 5517 5517 5517 5517 5516 5516 5516 5515 5514 5512 5510
5552 5544 5537 5531 5526 5523 5520 5517 5515 5513 5512 5511 5510 5510 5509 5508 5508 5507 5506 5505 5505 5505 5504 5505 5506 5506 5507 5508 5509 5509 5508 5507 5506 5506 5506 5506 5505 5506 5506 5505 5504 5502 5500
5547 5539 5532 5526 5521 5518 5515 5512 5510 5508 5507 5506 5504 5504 5503 5501 5501 5499 5498 5498 5497 5497 5497 5497 5497 5498 5498 5499 5500 5500 5499 5497 5496 5496 5497 5497 5497 5497 5497 5496 5495 5494 5493
5539 5532 5527 5521 5517 5513 5510 5507 5505 5503 5502 5501 5500 5499 5498 5496 5494 5493 5493 5492 5491 5490 5491 5490 5490 5490 5490 5491 5492 5492 5491 5490 5489 5489 5489 5489 5489 5490 5489 5489 5488 5487 5486
5534 5528 5522 5517 5513 5509 5506 5503 5501 5499 5498 5497 5495 5494 5493 5491 5490 5488 5487 5487 5486 5485 5484 5483 5482 5483 5483 5484 5485 5485 5485 5483 5483 5483 5483 5483 5484 5484 5484 5483 5482 5481 5480
5529 5523 5518 5513 5509 5506 5504 5500 5497 5496 5494 5493 5492 5490 5489 5488 5486 5485 5483 5482 5481 5480 5479 5478 5477 5477 5477 5478 5479 5479 5479 5479 5478 5478 5478 5478 5479 5479 5479 5478 5477 5477 5476
5526 5520 5515 5510 5506 5503 5501 5498 5495 5493 5492 5490 5488 5487 5486 5484 5483 5482 5480 5478 5477 5477 5475 5474 5473 5472 5472 5473 5474 5474 5474 5474 5474 5474 5474 5475 5475 5475 5474 5473 5473 5472 5472
5523 5517 5513 5508 5503 5501 5499 5496 5494 5492 5490 5488 5486 5484 5483 5481 5480 5478 5477 5476 5475 5474 5474 5472 5471 5470 5470 5470 5470 5470 5471 5471 5471 5471 5471 5471 5471 5471 5470 5469 5468 5467 5467
5521 5516 5512 5507 5503 5500 5497 5495 5493 5491 5488 5486 5484 5482 5481 5479 5477 5475 5474 5474 5474 5474 5473 5472 5470 5470 5469 5468 5469 5468 5469 5469 5468 5468 5468 5468 5467 5467 5466 5465 5464 5463 5463
5520 5515 5511 5507 5503 5500 5497 5495 5493 5491 5489 5486 5484 5482 5480 5478 5477 5476 5474 5474 5474 5474 5474 5473 5471 5470 5469 5469 5469 5469 5469 5468 5468 5467 5466 5464 5463 5463 5462 5462 5462 5461 5461